EW7556 Weather Reports


time (UTC)temp
F
wind
direction
speed
knots
gust
knots
rain 1hr
in
rain 24hr
in
rain mn
in
humidity
%
barometer
mb
20260505083033 45 207 0.0 0.0 0.00 0.00 0.00 91 1012.5
20260505081529 46 207 0.0 0.0 0.00 0.00 0.00 91 1012.4
20260505080008 47 207 0.0 0.0 0.00 0.00 0.00 91 1012.3
20260505074510 48 207 0.0 0.0 0.00 0.00 0.00 91 1012.2
20260505073012 49 207 0.0 0.9 0.00 0.00 0.00 91 1012.0
20260505071522 50 207 0.0 3.5 0.00 0.00 0.00 91 1011.9
20260505070121 50 227 0.9 5.2 0.00 0.00 0.00 91 1011.7
20260505064503 50 213 0.9 5.2 0.00 0.00 0.00 91 1011.5
20260505063028 51 214 1.7 5.2 0.00 0.00 0.00 90 1011.4
20260505061524 51 197 0.9 7.8 0.00 0.00 0.00 90 1011.3
20260505060005 51 212 0.9 5.2 0.00 0.00 0.00 90 1011.1
20260505054508 51 244 0.9 5.2 0.00 0.00 0.00 90 1010.9
20260505053011 51 207 4.3 8.7 0.00 0.00 0.00 90 1010.8
20260505051531 51 198 3.5 10.4 0.00 0.00 0.00 90 1010.7
20260505041512 52 231 2.6 10.4 0.00 0.00 0.00 88 1010.1
20260505040120 53 271 5.2 12.2 0.00 0.00 0.00 87 1010.1
20260505034603 53 224 4.3 7.0 0.00 0.00 0.00 85 1010.0
20260505033103 54 265 4.3 10.4 0.00 0.00 0.00 84 1009.8
20260505031511 55 220 4.3 12.2 0.00 0.00 0.00 82 1009.7
20260505030111 56 220 3.5 11.3 0.00 0.00 0.00 80 1009.6
20260505024617 57 217 2.6 7.8 0.00 0.00 0.00 77 1009.5
20260505023118 58 237 4.3 9.6 0.00 0.00 0.00 75 1009.4
20260505021503 61 206 4.3 8.7 0.00 0.00 0.00 69 1009.5
20260505020117 61 213 3.5 7.8 0.00 0.00 0.00 69 1009.6
20260505014600 61 231 2.6 9.6 0.00 0.00 0.00 69 1009.8
20260505013103 62 205 4.3 11.3 0.00 0.00 0.00 69 1009.9
20260505011503 63 191 5.2 12.2 0.00 0.00 0.00 65 1010.0
20260505010114 64 193 4.3 11.3 0.00 0.00 0.00 64 1010.0
20260505004558 65 224 7.0 13.9 0.00 0.00 0.00 62 1009.9
20260505003124 64 221 4.3 10.4 0.00 0.00 0.00 63 1009.9
20260505001501 65 211 5.2 13.9 0.00 0.00 0.00 64 1009.8
20260505000109 64 221 5.2 11.3 0.00 0.00 0.00 64 1009.9
20260504234554 65 231 3.5 11.3 0.00 0.00 0.00 65 1010.0
20260504233103 65 271 4.3 13.9 0.00 0.00 0.00 65 1009.9
20260504231600 65 274 4.3 13.9 0.00 0.00 0.00 67 1010.1
20260504230116 65 256 3.5 9.6 0.00 0.00 0.00 67 1010.1
20260504224601 64 227 5.2 12.2 0.00 0.00 0.00 68 1010.4
20260504223117 64 210 4.3 10.4 0.00 0.00 0.00 69 1010.4
20260504221502 63 231 3.5 12.2 0.00 0.00 0.00 71 1010.5
20260504220110 63 197 7.0 12.2 0.00 0.00 0.00 68 1010.6
20260504214557 63 250 3.5 10.4 0.00 0.00 0.00 70 1010.8
20260504213103 62 220 4.3 11.3 0.00 0.00 0.00 69 1010.9
20260504211505 63 204 4.3 8.7 0.00 0.00 0.00 68 1010.9
20260504210113 63 238 4.3 10.4 0.00 0.00 0.00 68 1010.9
20260504204603 64 188 4.3 9.6 0.00 0.00 0.00 67 1010.8
20260504203103 65 236 1.7 9.6 0.00 0.00 0.00 64 1010.9
20260504201502 65 202 1.7 6.1 0.00 0.00 0.00 65 1010.8
20260504200110 65 185 3.5 6.1 0.00 0.00 0.00 64 1010.9
20260504194557 65 191 2.6 6.1 0.00 0.00 0.00 64 1010.9
20260504193100 65 248 1.7 6.1 0.00 0.00 0.00 61 1010.9
20260504191626 70 240 3.5 7.8 0.00 0.00 0.00 51 1010.8
20260504184604 72 208 2.6 4.3 0.00 0.00 0.00 48 1010.6
20260504183002 72 191 0.9 5.2 0.00 0.00 0.00 50 1010.8
20260504181503 71 238 1.7 4.3 0.00 0.00 0.00 50 1011.0
20260504180111 70 222 3.5 6.1 0.00 0.00 0.00 49 1010.9
20260504174558 71 258 0.9 6.1 0.00 0.00 0.00 52 1010.9
20260504173101 70 225 0.9 3.5 0.00 0.00 0.00 52 1010.9
20260504171508 70 247 1.7 4.3 0.00 0.00 0.00 50 1011.0
20260504170115 70 247 1.7 7.0 0.00 0.00 0.00 50 1011.0
20260504160112 71 230 0.0 3.5 0.00 0.00 0.00 49 1011.0
20260504150104 67 200 0.0 1.7 0.00 0.00 0.00 50 1010.5
20260504120124 44 200 0.0 1.7 0.00 0.00 0.00 88 1009.8